Terug naar catalogus

STARLINK-35723

ActiefCommunicatieVLEO
NORAD 66211·PAYLOAD·🇺🇸 United States

Gelanceerd Oct 28, 2025 vanaf Vandenberg Space Force Base

Loading…

Volgende Passages (komende 24 uur)

TLE

VersSource: CelesTrak SupGP

Epoch: Sep 14, 2026, 23:07 UTC

1 66211C 25244F   26257.96368056  .00046246  00000+0  13640-2 0  2572
2 66211  53.1577  67.4586 0001162  81.9535 316.6147 15.34422587    13

Volg STARLINK-35723 in realtime met AllMySat

Download on the App Store